VA7RO Saanichton CA current weather conditions

sailwx.info

Wind from 298 at 2 knots gusting 3

Air temperature 6.7° C
Dewpoint 5.3° C

Last reported at 2019-Nov-14 15:58 UTC.
Time now 2019-Nov-14 16:28 UTC

Location: N 48°34' W 123°23'.
View on Google Maps.

See reports from other nearby stations

  
Tides and Currents Weather Stations Pressure Air Temp Water Temp Dewpoint Dewpoint Depression Visibility Wind Speed Wind Dir Waves Ship Positions
date/time (UTC)wind fromknots sea level pressurealtimeterstation pressurevisibilityair tempwater tempwave heightnotes
2019-Nov-14 15:58 298 2 gusting 3 6.7
2019-Nov-14 15:43 292 2 gusting 3 7.2
2019-Nov-14 15:28 292 1 gusting 3 7.2
2019-Nov-14 15:13 322 2 gusting 3 7.2
2019-Nov-14 14:58 309 2 gusting 4 7.8
2019-Nov-14 14:43 308 2 gusting 2 7.2
2019-Nov-14 14:28 348 2 gusting 4 7.2
2019-Nov-14 14:13 289 3 gusting 5 7.2
2019-Nov-14 13:58 307 2 gusting 5 7.2
2019-Nov-14 13:43 294 2 gusting 4 7.2
2019-Nov-14 13:28 311 2 gusting 4 7.8
2019-Nov-14 13:13 304 2 gusting 3 7.2
2019-Nov-14 12:58 290 2 gusting 4 7.2
2019-Nov-14 12:43 309 2 gusting 3 7.2
2019-Nov-14 12:28 311 2 gusting 3 7.8
2019-Nov-14 12:13 291 1 gusting 3 7.8
2019-Nov-14 11:58 311 2 gusting 3 7.8
2019-Nov-14 11:43 301 1 gusting 3 7.8
2019-Nov-14 11:28 321 2 gusting 3 7.8
2019-Nov-14 11:13 309 1 gusting 4 7.2
2019-Nov-14 10:58 289 2 gusting 4 7.8
2019-Nov-14 10:43 299 2 gusting 4 7.8
2019-Nov-14 10:28 305 1 gusting 3 7.8
2019-Nov-14 10:13 290 2 gusting 4 8.3
2019-Nov-14 09:58 310 1 gusting 2 7.8
2019-Nov-14 09:43 314 2 gusting 4 8.3
2019-Nov-14 09:28 313 1 gusting 4 8.3
2019-Nov-14 09:13 311 1 gusting 6 8.3
2019-Nov-14 08:58 314 3 gusting 5 8.3
2019-Nov-14 08:43 306 2 gusting 4 7.2
2019-Nov-14 08:28 300 1 gusting 6 8.3
2019-Nov-14 08:13 343 2 gusting 6 7.8
2019-Nov-14 07:58 336 2 gusting 5 7.8
2019-Nov-14 07:43 300 2 gusting 4 7.8
2019-Nov-14 07:28 303 2 gusting 5 8.3
2019-Nov-14 07:13 305 2 gusting 2 7.8
2019-Nov-14 06:58 305 1 gusting 3 7.8
2019-Nov-14 06:43 306 2 gusting 3 7.8
2019-Nov-14 06:28 306 2 gusting 4 8.3
2019-Nov-14 06:13 308 3 gusting 4 8.3
2019-Nov-14 05:58 304 3 gusting 4 7.8
2019-Nov-14 05:43 305 2 gusting 4 7.8
2019-Nov-14 05:28 311 3 gusting 4 7.8
2019-Nov-14 05:13 312 3 gusting 4 7.8
2019-Nov-14 04:58 307 2 gusting 4 8.3
2019-Nov-14 04:43 307 2 gusting 3 7.8
2019-Nov-14 04:28 311 2 gusting 3 7.8
2019-Nov-14 04:13 311 2 gusting 5 7.8
2019-Nov-14 03:58 309 2 gusting 4 7.8
2019-Nov-14 03:43 292 1 gusting 3 8.3
2019-Nov-14 03:28 310 2 gusting 4 8.3
2019-Nov-14 03:13 309 1 gusting 2 7.8
2019-Nov-14 02:58 309 2 gusting 3 7.8
2019-Nov-14 02:43 294 1 gusting 4 8.9
2019-Nov-14 02:28 336 4 gusting 5 8.9
2019-Nov-14 02:13 321 1 gusting 2 8.9
2019-Nov-14 01:58 309 2 gusting 5 9.4
2019-Nov-14 01:43 303 3 gusting 5 9.4
2019-Nov-14 01:28 318 2 gusting 5 9.4
2019-Nov-14 01:13 336 1 gusting 2 9.4
2019-Nov-14 00:58 314 1 gusting 5 9.4
2019-Nov-14 00:43 305 2 gusting 5 10.0
2019-Nov-14 00:28 331 3 gusting 6 10.0
2019-Nov-14 00:13 313 2 gusting 6 10.6
2019-Nov-13 23:58 321 2 gusting 6 10.6
2019-Nov-13 23:43 290 2 gusting 5 10.6
2019-Nov-13 23:28 345 2 gusting 5 10.6
2019-Nov-13 23:13 329 4 gusting 6 10.6
2019-Nov-13 22:58 346 2 gusting 6 10.6
2019-Nov-13 22:43 317 2 gusting 5 10.6
2019-Nov-13 22:28 324 2 gusting 4 11.1
2019-Nov-13 22:13 299 2 gusting 5 10.6
2019-Nov-13 21:58 351 3 gusting 6 10.6
2019-Nov-13 21:43 304 3 gusting 7 10.6
2019-Nov-13 21:28 032 2 gusting 5 10.0
2019-Nov-13 21:13 292 2 gusting 5 10.0
2019-Nov-13 20:58 020 2 gusting 5 10.6
2019-Nov-13 20:43 064 3 gusting 5 10.0
2019-Nov-13 20:28 031 0 gusting 4 10.0
2019-Nov-13 20:13 011 2 gusting 4 10.0
2019-Nov-13 19:58 327 0 gusting 6 9.4
2019-Nov-13 19:43 310 2 gusting 6 9.4
2019-Nov-13 19:28 016 3 gusting 6 9.4
2019-Nov-13 19:13 026 2 gusting 5 10.0
2019-Nov-13 18:58 017 3 gusting 5 10.0
2019-Nov-13 18:43 339 1 gusting 3 10.0
2019-Nov-13 18:28 005 1 gusting 4 9.4
2019-Nov-13 18:13 344 2 gusting 4 9.4
2019-Nov-13 17:58 033 1 gusting 3 9.4
2019-Nov-13 17:43 020 0 gusting 3 9.4
2019-Nov-13 17:28 324 1 gusting 5 9.4
2019-Nov-13 17:13 329 1 gusting 3 9.4
2019-Nov-13 16:58 029 1 gusting 4 9.4
2019-Nov-13 16:43 331 2 gusting 4 8.9
2019-Nov-13 16:28 307 1 gusting 4 8.9
2019-Nov-13 16:13 314 2 gusting 3 8.9
2019-Nov-13 15:58 297 1 gusting 3 8.9
2019-Nov-13 15:43 298 1 gusting 4 8.9
2019-Nov-13 15:28 313 2 gusting 5 8.9
2019-Nov-13 15:13 313 2 gusting 5 8.9
2019-Nov-13 14:58 308 2 gusting 4 8.9
2019-Nov-13 14:43 355 1 gusting 3 8.9
2019-Nov-13 14:28 324 2 gusting 4 8.9
2019-Nov-13 14:13 306 1 gusting 2 8.9
2019-Nov-13 13:58 310 1 gusting 2 8.9
2019-Nov-13 13:43 331 1 gusting 3 8.9
2019-Nov-13 13:28 331 2 gusting 3 8.9
2019-Nov-13 13:13 312 1 gusting 3 8.9
2019-Nov-13 12:58 292 1 gusting 2 8.9
2019-Nov-13 12:43 321 0 gusting 1 8.9
2019-Nov-13 12:28 321 1 gusting 3 8.9
2019-Nov-13 12:13 322 1 gusting 3 8.9
2019-Nov-13 11:58 311 1 gusting 2 8.9
2019-Nov-13 11:43 300 0 gusting 1 8.9
2019-Nov-13 11:28 307 1 gusting 2 8.9
2019-Nov-13 11:13 302 1 gusting 2 8.9
2019-Nov-13 10:58 005 0 gusting 1 8.9
2019-Nov-13 10:43 005 0 gusting 1 8.9
2019-Nov-13 10:28 005 8.9
2019-Nov-13 10:13 005 0 gusting 1 8.9
2019-Nov-13 09:58 005 8.9
2019-Nov-13 09:43 287 0 gusting 1 8.9
2019-Nov-13 09:28 286 1 gusting 1 8.9
2019-Nov-13 09:13 286 0 gusting 2 8.9
2019-Nov-13 08:58 343 0 gusting 1 8.9
2019-Nov-13 08:43 343 0 gusting 2 8.9
2019-Nov-13 08:28 310 8.9
2019-Nov-13 08:13 309 0 gusting 1 8.9
2019-Nov-13 07:58 015 0 gusting 2 8.9
2019-Nov-13 07:43 022 8.9
2019-Nov-13 07:28 032 0 gusting 2 8.9
2019-Nov-13 07:13 355 0 gusting 2 8.9
2019-Nov-13 06:58 030 1 gusting 3 8.9
2019-Nov-13 06:43 053 0 gusting 1 8.3
2019-Nov-13 06:28 053 0 gusting 2 8.3
2019-Nov-13 06:13 319 8.3
2019-Nov-13 05:58 259 0 gusting 1 8.3
2019-Nov-13 05:43 258 8.3
2019-Nov-13 05:28 258 0 gusting 2 8.3
2019-Nov-13 05:13 245 0 gusting 1 8.3
2019-Nov-13 04:58 189 8.9
2019-Nov-13 04:43 184 1 gusting 3 8.9
2019-Nov-13 04:28 165 1 gusting 4 8.3
2019-Nov-13 04:13 097 2 gusting 5 8.3
2019-Nov-13 03:58 175 2 gusting 4 8.3
2019-Nov-13 03:43 140 2 gusting 4 8.9
2019-Nov-13 03:28 167 1 gusting 2 8.9
2019-Nov-13 03:13 219 1 gusting 5 8.9
2019-Nov-13 02:58 151 2 gusting 4 8.9
2019-Nov-13 02:43 206 0 gusting 1 8.9
2019-Nov-13 02:28 180 0 gusting 1 8.9
2019-Nov-13 02:13 180 1 gusting 1 8.9
2019-Nov-13 01:58 172 0 gusting 3 8.9
2019-Nov-13 01:43 205 0 gusting 3 8.9
2019-Nov-13 01:28 129 2 gusting 3 9.4
2019-Nov-13 01:13 127 1 gusting 2 9.4
2019-Nov-13 00:58 144 0 gusting 2 9.4
2019-Nov-13 00:43 136 2 gusting 6 8.9
2019-Nov-13 00:28 121 3 gusting 6 8.9
2019-Nov-13 00:13 131 5 gusting 7 8.9
2019-Nov-12 23:58 159 5 gusting 10 8.9
2019-Nov-12 23:43 131 7 gusting 11 8.9
2019-Nov-12 23:28 111 6 gusting 9 8.9
2019-Nov-12 23:13 171 4 gusting 11 8.9
2019-Nov-12 22:58 130 6 gusting 10 8.9
2019-Nov-12 22:43 130 4 gusting 8 8.9
2019-Nov-12 22:28 150 5 gusting 7 8.9
2019-Nov-12 22:13 136 6 gusting 9 8.9
2019-Nov-12 21:58 153 3 gusting 6 8.9
2019-Nov-12 21:43 142 4 gusting 7 8.9
2019-Nov-12 21:28 132 4 gusting 7 8.9
2019-Nov-12 21:13 145 5 gusting 7 8.9
2019-Nov-12 20:58 121 3 gusting 6 8.9
2019-Nov-12 20:43 134 3 gusting 6 8.9
2019-Nov-12 20:28 170 4 gusting 6 8.9
2019-Nov-12 20:13 120 3 gusting 6 8.9
2019-Nov-12 19:58 136 3 gusting 6 8.9
2019-Nov-12 19:43 138 2 gusting 5 8.9
2019-Nov-12 19:28 128 3 gusting 5 8.9
2019-Nov-12 19:13 123 3 gusting 5 8.9
2019-Nov-12 18:58 130 1 gusting 4 8.9
2019-Nov-12 18:43 156 2 gusting 5 8.9
2019-Nov-12 18:28 120 2 gusting 4 8.3
2019-Nov-12 18:13 156 2 gusting 5 8.3
2019-Nov-12 17:58 171 2 gusting 4 8.3
2019-Nov-12 17:43 153 2 gusting 4 7.8
2019-Nov-12 17:28 146 0 gusting 3 7.8
2019-Nov-12 17:13 190 1 gusting 2 7.8
2019-Nov-12 16:58 167 0 gusting 4 7.8
2019-Nov-12 16:43 137 2 gusting 4 7.8
2019-Nov-12 16:28 169 1 gusting 3 7.8
2019-Nov-12 16:13 159 1 gusting 2 7.8